Location: Larkspur
(54.4391°N, 113.7691°W)
Time: 14:15:29
(UTC+00:00)

METEOR M2 - Pass Details

Date: 08 December 2023
Orbit: 819 x 826 km, 98.4° (Epoch: 02 March)

Event Time Altitude Azimuth Distance (km) Brightness Sun altitude
Rises 12:22:04 0° 23° (NNE) 3,374 ? -27.6°
Reaches altitude 10° 12:24:58 10° 38° (NE) 2,434 ? -27.2°
Maximum altitude 12:29:09 23° 89° (E) 1,703 ? -26.6°
Drops below altitude 10° 12:33:19 10° 140° (SE) 2,417 ? -26.0°
Sets 12:36:09 0° 155° (SSE) 3,343 ? -25.6°
